Theta_e
324 324 324 324 324 325 325 325 325 325 325 324 324 323 324 324 324 324 324 324 323 322 320 319 316 317 312 307 308 307 308 308 308 306 308 309 309 309 307 307 308 307 308 310 310 311 311
320 320 321 320 321 322 322 323 324 323 323 323 323 322 323 324 324 323 323 323 323 323 322 319 318 316 307 305 310 308 308 307 306 306 308 309 309 309 308 308 308 309 309 309 310 310 311
311 311 311 314 317 318 318 320 321 321 321 322 322 321 321 321 322 323 322 323 322 322 322 321 319 317 310 316 310 309 307 306 306 307 308 308 309 309 307 307 308 309 307 306 308 308 308
307 307 307 308 309 310 312 313 315 316 318 318 318 318 318 320 321 321 321 321 321 321 321 321 320 316 313 317 309 307 308 307 307 307 307 308 308 308 308 307 309 309 307 307 308 308 308
306 305 305 304 305 306 307 309 309 310 310 310 311 312 317 317 317 320 320 320 320 319 319 320 318 310 314 317 313 310 307 307 308 308 308 308 308 307 308 306 306 307 308 308 308 306 307
304 302 301 300 299 300 301 303 304 305 306 307 308 309 309 312 317 318 319 319 318 318 318 318 312 311 316 316 310 309 308 306 307 308 307 308 308 305 304 305 307 309 309 307 306 307 306
301 302 299 298 298 298 300 299 300 300 299 300 302 306 307 308 309 314 316 316 317 316 314 318 313 310 308 308 307 307 307 306 307 307 305 307 307 307 307 306 309 310 308 308 306 307 306
304 302 301 299 299 299 299 300 299 299 299 299 300 302 303 305 307 309 312 313 315 313 313 316 316 314 314 308 307 307 306 306 306 305 305 305 306 307 308 308 309 308 307 307 307 309 306
304 303 302 300 302 301 300 297 297 297 298 299 300 302 303 303 304 307 310 312 312 312 310 312 313 315 316 317 314 308 306 306 305 304 304 304 306 308 308 308 309 307 306 307 308 308 306
302 302 300 303 303 299 299 297 297 297 297 304 302 302 302 304 303 305 308 310 310 310 303 309 310 311 313 315 311 316 307 307 305 305 305 305 306 307 308 309 308 308 307 308 308 307 307
302 302 302 302 300 298 296 296 296 297 298 305 306 304 303 305 305 304 306 308 308 309 302 307 311 311 313 313 310 310 312 306 307 306 307 308 309 308 309 309 308 308 308 308 309 307 308
301 301 301 301 300 298 297 296 296 296 297 299 305 305 304 305 306 307 308 307 307 303 306 309 311 309 310 311 308 306 307 306 306 306 305 306 307 308 308 308 307 308 308 308 308 307 307
301 302 301 301 300 298 297 297 296 296 297 298 302 304 303 304 305 306 307 307 305 303 306 307 309 307 307 307 309 305 305 304 304 305 305 306 306 307 308 308 308 307 307 309 312 310 310
301 300 302 301 300 298 297 297 297 296 297 297 300 304 303 303 304 305 305 302 300 304 306 307 307 307 306 305 306 306 304 304 303 305 305 305 306 307 306 308 308 307 308 310 313 314 312
301 299 300 300 300 298 297 297 297 297 297 297 299 301 302 302 304 305 304 302 301 303 304 305 304 307 306 305 304 305 304 304 305 305 306 307 308 308 306 308 309 309 309 309 312 310 310
301 300 299 299 299 298 298 298 297 297 297 298 299 300 301 302 303 305 304 304 302 303 305 306 305 305 305 304 304 303 304 305 305 305 306 308 308 309 307 308 307 311 310 313 311 315 315
301 301 300 299 299 298 298 298 297 297 297 301 300 299 301 302 303 304 304 303 303 304 304 304 307 308 308 305 304 304 306 306 305 305 305 306 309 309 307 307 307 307 309 310 311 309 312
299 301 301 300 299 298 298 298 298 297 302 302 301 300 301 301 303 303 304 303 303 303 303 304 307 307 309 309 307 306 306 306 307 306 307 306 307 308 308 307 307 308 309 310 311 312 309
299 300 299 299 299 298 298 298 298 299 303 304 301 301 302 301 301 302 302 303 302 303 304 304 304 306 305 308 309 308 306 307 307 305 307 308 309 308 310 308 307 309 309 310 308 307 309
299 299 299 298 299 298 298 297 299 299 305 305 302 303 303 302 303 301 302 303 303 303 303 305 305 305 307 309 309 308 309 307 306 307 307 308 310 310 311 309 309 310 310 310 309 309 306
299 299 298 299 298 298 298 298 298 300 302 304 303 303 303 304 303 303 302 303 304 304 303 305 305 305 305 307 309 308 308 306 306 309 308 307 309 310 310 309 310 311 309 308 308 307 308
300 299 298 299 299 298 298 297 299 299 301 303 301 300 300 300 303 304 304 304 304 303 304 304 305 306 306 308 308 307 305 304 305 306 307 308 309 310 309 309 310 310 308 307 307 307 306
299 298 297 299 299 298 297 298 298 300 301 302 302 301 300 301 302 303 305 305 304 304 305 304 304 305 306 307 308 308 307 305 305 306 307 308 308 309 310 308 308 308 307 307 306 306 305
298 297 297 299 298 298 297 298 299 298 299 300 301 302 301 301 302 303 304 306 305 305 304 305 305 304 306 307 307 306 306 307 308 307 307 307 308 308 311 309 311 304 305 305 302 301 301
297 297 298 299 298 297 297 297 298 297 298 298 299 301 302 301 302 303 304 305 304 305 306 305 306 306 306 307 306 307 307 306 307 308 308 307 307 309 310 310 307 308 304 304 305 303 300
296 297 299 298 298 297 297 296 296 296 298 298 299 301 302 303 301 303 305 305 306 306 306 305 305 306 306 305 306 308 309 308 308 307 306 307 306 307 309 310 310 307 305 304 303 304 300
297 299 299 298 297 297 297 296 296 298 299 299 300 301 302 304 304 303 305 305 306 304 303 304 304 305 306 304 307 307 308 308 309 308 307 307 305 309 307 309 306 305 304 302 304 302 300
298 299 298 297 296 297 297 297 298 298 299 299 300 301 302 303 303 305 304 306 306 304 303 304 304 304 303 305 305 305 306 306 307 307 307 308 308 307 307 308 309 304 303 304 299 298 299
299 299 297 296 297 297 297 298 298 298 299 299 300 301 302 302 304 305 306 306 305 306 305 304 304 303 304 304 302 304 307 305 306 309 306 305 305 305 305 304 300 301 302 302 301 300 298
Wind_Speed
27 27 26 26 24 23 22 22 22 20 19 18 18 17 15 14 14 12 10 12 11 13 13 13 12 13 13 6 4 5 5 5 6 4 2 3 6 5 3 5 8 2 4 9 7 6 3
31 30 29 28 27 26 24 23 23 24 23 22 21 18 16 14 13 14 12 13 13 12 14 13 12 13 13 5 4 5 5 6 5 3 2 1 2 3 2 4 2 8 10 16 10 8 8
27 27 27 28 31 29 27 25 24 23 23 22 23 23 18 19 17 16 16 16 14 13 13 13 13 15 16 16 10 10 4 3 3 3 3 1 1 1 3 4 8 9 6 8 4 3 6
26 25 25 25 26 25 27 28 29 27 27 27 26 22 20 20 18 17 16 16 14 14 14 14 14 14 11 13 13 12 9 5 2 0 2 3 3 4 1 5 6 5 3 4 5 2 1
23 23 23 23 23 23 24 25 24 23 23 23 22 19 21 20 20 17 15 16 14 12 13 13 13 9 11 10 13 12 10 6 5 5 2 2 4 1 1 3 4 2 3 3 6 7 2
21 20 20 19 18 18 17 18 19 19 19 20 20 20 18 17 16 21 16 12 13 14 14 14 14 9 11 8 5 6 11 8 5 4 4 3 0 3 3 3 4 4 3 3 3 5 8
18 17 18 18 18 17 17 15 15 14 15 15 15 17 18 18 17 17 14 14 8 8 8 12 4 6 2 3 4 3 10 11 7 3 3 2 3 7 10 8 2 2 2 3 3 5 5
17 17 17 15 16 17 17 18 17 16 14 14 14 14 13 14 15 12 10 7 7 5 12 16 21 25 23 14 5 9 11 11 6 6 3 2 7 10 6 5 4 5 6 5 4 3 6
17 17 17 16 13 16 17 15 16 16 14 12 11 11 10 9 8 11 13 11 9 8 8 10 24 28 31 24 20 18 18 11 6 6 7 7 6 3 8 6 6 5 6 5 6 1 6
18 17 15 15 16 12 12 13 13 13 11 11 10 10 8 6 4 7 10 10 6 3 2 5 6 10 20 28 11 30 30 17 6 10 5 8 13 10 6 6 8 6 6 6 6 4 5
20 19 18 17 14 11 11 11 12 11 12 12 9 11 7 9 4 5 4 13 8 1 3 3 4 2 3 14 2 14 33 27 11 7 6 8 3 7 12 8 7 7 6 7 4 3 1
24 21 18 16 14 11 10 12 13 14 13 13 12 10 12 14 10 8 15 17 8 5 8 5 5 5 5 12 2 4 17 20 8 2 5 5 3 3 4 5 8 7 5 5 4 4 3
26 24 21 19 15 12 11 11 12 13 13 15 14 12 13 17 14 13 16 17 3 4 4 4 4 5 4 5 4 2 10 11 10 5 12 4 11 4 5 2 1 4 6 1 1 0 6
24 26 23 20 17 14 12 11 11 12 12 13 16 15 13 15 15 17 21 4 4 7 8 3 4 4 5 4 4 5 4 8 9 3 3 7 5 11 8 9 6 6 7 5 6 4 3
26 25 24 21 18 15 13 12 11 11 11 12 13 15 19 18 19 22 20 4 9 7 5 2 5 2 3 5 6 5 6 8 9 11 8 5 6 2 5 5 12 5 5 6 3 2 2
27 25 23 21 18 16 14 13 12 11 10 12 15 14 20 23 25 25 8 17 8 8 2 4 6 7 7 6 7 7 5 6 10 17 5 2 5 2 1 5 1 6 6 3 1 4 4
29 27 24 22 19 17 14 13 13 11 11 12 15 7 10 30 30 23 15 12 13 11 10 5 5 3 4 4 7 5 6 6 9 10 19 12 3 5 2 4 8 3 3 3 4 3 4
32 29 25 23 20 17 15 14 11 10 10 15 19 4 18 39 18 19 19 16 15 8 24 8 5 6 5 2 4 7 10 9 8 12 11 7 3 12 10 4 3 7 5 5 4 4 2
29 30 28 26 22 19 16 14 10 8 17 24 17 10 22 48 12 16 20 26 30 9 13 11 13 9 7 7 5 7 11 7 9 8 8 8 3 1 5 3 1 3 3 4 4 3 5
29 31 28 28 24 20 17 13 10 9 22 30 12 4 10 36 15 17 18 25 27 19 22 23 5 12 4 9 10 5 4 2 2 2 13 9 4 5 8 2 3 4 4 5 6 4 4
32 29 28 28 24 21 19 15 13 12 16 32 13 5 12 7 14 15 17 8 26 23 28 15 15 21 15 13 5 7 5 1 4 8 2 4 6 7 11 2 3 5 12 11 6 5 6
30 29 30 28 25 22 21 19 18 15 16 31 10 6 5 1 6 18 23 22 24 24 21 26 19 14 13 14 13 6 7 6 5 2 2 3 1 2 4 8 7 5 10 9 4 5 5
27 29 29 28 25 23 21 21 19 20 19 15 12 9 5 7 6 6 13 19 24 16 18 31 29 17 17 20 21 21 17 8 7 5 3 3 4 3 4 9 2 3 7 8 4 3 7
31 29 30 27 25 23 22 24 21 21 21 18 15 9 7 3 10 15 10 18 20 22 21 24 26 24 23 14 12 8 8 12 7 3 7 4 4 4 2 6 7 4 2 2 5 2 3
27 28 29 27 24 24 22 24 25 22 22 19 19 19 8 3 10 14 17 10 21 27 21 23 18 31 31 11 4 4 1 3 4 8 10 13 8 3 3 5 2 1 4 7 7 6 5
27 29 28 25 24 21 20 18 21 22 23 23 24 25 11 2 7 21 10 16 7 10 9 7 9 21 22 4 3 5 4 4 5 6 12 10 7 5 2 4 5 2 4 9 4 3 16
29 29 27 23 22 23 20 18 19 24 21 19 17 28 16 7 10 16 9 8 11 7 4 5 4 6 20 3 2 2 3 5 6 8 7 6 2 9 3 2 4 2 10 9 4 5 19
29 28 25 22 20 20 21 21 23 22 17 8 13 29 23 7 18 12 24 16 17 17 5 10 5 4 4 3 3 3 3 4 4 4 7 8 6 3 2 3 5 13 6 5 5 13 24
28 26 23 21 18 14 21 19 15 16 14 7 12 24 28 12 6 17 17 22 17 20 14 14 7 9 8 3 3 1 1 1 5 3 2 2 5 5 3 3 2 3 2 7 17 28 24
Wind_Direction
245 246 248 247 245 243 244 244 252 249 250 255 254 257 266 275 283 281 290 294 292 303 312 316 323 320 327 319 279 287 298 299 309 332 312 15 23 10 1 333 334 234 330 316 286 286 271
244 245 244 246 244 245 243 243 242 248 249 251 255 258 257 263 272 282 286 288 300 308 309 315 320 316 316 298 272 283 301 295 287 294 336 269 77 1 310 306 350 315 298 292 293 219 248
245 243 243 242 242 243 244 241 246 246 249 249 251 257 256 261 264 273 285 281 298 297 302 309 313 313 305 282 265 263 270 279 294 301 277 17 324 2 334 319 337 304 320 322 303 262 188
243 242 242 240 241 238 242 244 245 247 250 254 256 256 250 251 254 257 274 285 288 299 297 298 305 307 282 281 254 244 257 257 228 333 245 301 320 332 217 327 349 355 15 342 300 157 345
241 237 236 238 239 241 240 244 247 250 248 250 254 252 250 250 251 256 267 279 293 298 300 299 297 292 269 261 271 267 228 221 219 220 225 286 314 50 103 80 9 360 250 234 321 12 106
232 232 230 233 235 237 235 236 240 243 244 244 244 248 248 255 242 245 263 267 288 300 293 288 265 284 257 260 264 267 235 223 239 205 237 223 175 73 38 100 218 192 202 264 272 312 43
219 224 228 230 231 231 234 231 230 238 237 237 238 239 241 243 247 242 246 273 289 292 247 226 248 240 253 298 215 230 218 216 222 208 178 176 97 210 208 195 178 299 238 246 263 268 87
220 217 223 222 219 224 225 230 230 235 238 230 232 231 234 235 237 235 220 223 232 274 293 252 256 255 249 266 287 224 196 189 198 210 151 356 230 229 202 215 227 226 192 234 277 266 100
218 224 225 223 215 209 219 226 228 231 231 228 223 220 230 234 225 216 208 220 243 290 272 262 249 248 244 247 238 224 198 196 187 187 195 187 232 64 173 219 223 219 180 200 212 218 67
226 222 211 206 212 214 222 222 221 221 219 209 206 211 217 209 207 208 201 196 207 228 345 264 232 251 217 224 248 227 212 200 204 205 183 235 244 256 227 214 174 202 209 191 168 132 234
221 220 207 213 217 220 211 215 212 210 214 196 204 205 190 159 132 146 148 154 160 140 339 223 203 247 208 178 312 209 214 206 212 183 143 235 223 212 229 216 175 212 156 164 154 162 21
219 216 213 211 214 213 211 211 210 208 211 205 194 206 195 179 145 123 135 143 152 48 246 309 159 158 123 214 239 113 184 209 217 231 252 240 280 297 228 191 170 150 119 54 53 105 288
215 213 212 215 219 218 218 217 216 215 208 210 193 197 203 182 173 142 149 148 66 180 311 256 191 160 192 199 219 156 179 189 190 179 240 281 253 213 205 142 84 105 106 252 11 212 233
219 209 212 216 217 220 223 226 228 220 217 212 194 193 202 193 163 159 162 63 180 212 222 320 82 63 191 164 276 225 189 206 223 181 154 189 291 187 188 173 184 188 165 169 209 195 231
217 213 213 217 221 220 227 232 231 228 220 213 197 196 201 190 170 174 171 211 209 192 204 227 345 300 250 208 185 188 219 221 210 188 187 191 260 251 191 164 156 197 199 173 92 25 64
215 217 215 218 221 226 229 242 240 233 220 206 196 199 209 181 177 177 195 231 216 192 106 68 192 213 224 221 181 162 200 231 216 208 178 238 294 280 214 117 109 155 164 121 58 205 224
222 220 223 222 222 226 237 243 245 233 213 185 191 205 195 176 181 187 211 223 219 226 215 196 214 251 252 232 207 202 219 260 210 196 197 220 115 300 128 210 168 140 186 82 122 147 182
212 214 218 224 222 227 235 241 229 229 193 191 194 206 173 176 182 210 224 215 238 240 226 247 236 236 249 282 275 249 223 218 213 177 200 200 194 232 236 256 207 196 171 151 151 189 87
214 222 225 223 223 224 231 234 223 221 199 205 184 182 179 175 198 214 230 234 240 220 215 223 221 209 228 253 253 220 240 230 214 160 177 171 214 281 338 303 10 195 186 133 102 87 183
223 218 225 219 220 222 226 223 212 195 190 185 174 159 177 196 216 207 224 235 233 229 252 236 238 237 230 235 225 255 223 122 112 263 182 149 145 199 223 225 154 174 161 167 164 163 167
209 212 213 216 217 220 222 200 205 199 197 186 188 196 183 197 219 230 214 231 227 231 221 222 234 229 227 238 217 219 245 152 60 170 88 117 184 191 225 268 252 246 202 183 168 161 177
207 212 210 212 217 218 212 207 201 200 211 202 178 165 193 240 214 217 224 225 228 222 215 225 240 221 228 232 223 185 174 198 196 161 83 130 150 65 311 251 233 203 189 164 125 125 80
202 208 209 211 214 217 211 214 208 203 206 216 227 221 192 206 198 209 221 226 226 216 226 227 222 233 239 237 232 244 211 174 170 146 132 89 98 131 238 235 190 299 204 173 140 152 143
206 207 205 209 213 215 211 209 213 220 219 219 216 202 193 244 214 220 220 217 215 202 214 221 224 217 236 249 170 122 145 154 146 102 112 109 152 194 228 153 213 252 274 225 121 132 141
200 200 202 207 213 215 213 212 215 223 235 231 227 218 208 249 224 232 231 216 206 207 222 224 248 220 215 160 73 66 8 6 235 230 214 201 186 252 192 208 287 223 192 162 170 215 195
199 199 200 207 212 214 213 211 219 225 217 224 231 220 228 227 231 215 219 208 194 205 193 229 247 234 193 102 154 180 196 161 166 185 200 188 204 208 171 222 220 237 161 162 129 282 180
195 196 197 205 209 206 209 216 214 199 200 214 240 219 226 251 268 203 202 204 194 148 153 177 196 182 170 99 144 162 206 184 160 171 170 172 148 206 181 183 288 181 153 153 132 236 150
190 191 195 199 198 201 205 205 199 201 199 218 238 227 215 228 249 242 217 212 196 182 146 165 109 356 63 121 140 214 166 182 166 181 169 170 161 165 171 117 255 160 143 178 177 130 156
187 189 191 189 190 193 193 201 195 199 221 237 229 216 221 247 263 229 227 219 219 207 183 167 155 150 162 118 198 131 269 149 153 188 121 175 180 171 183 205 313 157 155 159 152 155 154